User: anonymous   Login
Location: CNYAC Observatory
(43.2150°N, 74.9500°W)
Time: 05:47:25
(UTC-04:00)
Language:

Meteor 1-22 Rocket - Orbit

View from above orbital plane
View from above orbital plane
View from above satellite
View from above satellite

Ground track
Ground track

The orbit data is extracted from the following two-line orbital elements,

1 08294U 75087B   15211.89121241  .00000046  00000-0  18387-4 0  9999
2 08294 081.2086 332.4675 0105016 180.0331 180.0851 14.08497467 48093
Epoch (UTC): 30 July 2015 21:23:20
Eccentricity: 0.0105016
inclination: 81.2086°
perigee height: 788 km
apogee height: 940 km
right ascension of ascending node: 332.4675°
argument of perigee: 180.0331°
revolutions per day: 14.08497467
mean anomaly at epoch: 180.0851°
orbit number at epoch: 4809

The dashed part of the orbit path shows where the satellite is in the earth's shadow,  

DLR